Location: Chequamegon National Forest
(46.1070°N, 90.8420°W)
Time: 09:48:35
(UTC-06:00)

ISS - All Passes

Search period start: 17 December 2017 00:00
Search period end: 27 December 2017 00:00
Orbit: 402 x 406 km, 51.6° (Epoch: 18 December)

Date Brightness Start Highest point End Pass type
(mag) Time Alt. Az. Time Alt. Az. Time Alt. Az.
17 Dec - 10:30:44 10° SSW 10:33:41 32° SE 10:36:39 10° ENE daylight
17 Dec - 12:06:51 10° W 12:10:04 51° NNW 12:13:19 10° ENE daylight
17 Dec - 13:44:03 10° WNW 13:47:00 29° N 13:49:58 10° ENE daylight
17 Dec - 15:20:43 10° WNW 15:23:57 49° NNE 15:27:10 10° E daylight
17 Dec - 16:57:21 10° WNW 17:00:21 33° SW 17:03:21 10° SSE visible
18 Dec - 09:39:13 10° S 09:41:36 19° SE 09:43:59 10° E daylight
18 Dec - 11:14:28 10° WSW 11:17:46 76° NNW 11:21:04 10° ENE daylight
18 Dec - 12:51:35 10° WNW 12:54:35 31° N 12:57:35 10° ENE daylight
18 Dec - 14:28:28 10° WNW 14:31:35 38° NNE 14:34:41 10° E daylight
18 Dec - 16:04:57 10° WNW 16:08:12 58° SSW 16:11:26 10° SE daylight
19 Dec - 08:48:49 10° SE 08:49:35 11° SE 08:50:20 10° ESE daylight
19 Dec - 10:22:14 10° SW 10:25:30 67° SSE 10:28:46 10° ENE daylight
19 Dec - 11:59:05 10° W 12:02:10 36° NNW 12:05:15 10° ENE daylight
19 Dec - 13:36:09 10° WNW 13:39:10 32° N 13:42:11 10° ENE daylight
19 Dec - 15:12:39 10° WNW 15:15:57 85° NNE 15:19:14 10° ESE daylight
19 Dec - 16:49:55 10° W 16:52:03 16° SW 16:54:10 10° S visible
20 Dec - 09:30:13 10° SSW 09:33:18 38° SE 09:36:24 10° ENE daylight
20 Dec - 11:06:34 10° W 11:09:45 45° NNW 11:12:57 10° ENE daylight
20 Dec - 12:43:46 10° WNW 12:46:44 30° N 12:49:41 10° ENE daylight
20 Dec - 14:20:23 10° WNW 14:23:38 56° NNE 14:26:53 10° ESE daylight
20 Dec - 15:57:06 10° W 15:59:58 27° SW 16:02:48 10° SSE daylight
21 Dec - 08:38:31 10° SSW 08:41:09 22° SE 08:43:48 10° E daylight
21 Dec - 10:14:08 10° WSW 10:17:24 65° NNW 10:20:41 10° ENE daylight
21 Dec - 11:51:17 10° WNW 11:54:15 30° N 11:57:14 10° ENE daylight
21 Dec - 13:28:05 10° WNW 13:31:15 41° NNE 13:34:23 10° E daylight
21 Dec - 15:04:36 10° WNW 15:07:47 47° SW 15:10:58 10° SE daylight
22 Dec - 07:47:28 10° SSE 07:49:05 13° SE 07:50:41 10° ESE daylight
22 Dec - 09:21:48 10° WSW 09:25:05 80° SSE 09:28:23 10° ENE daylight
22 Dec - 10:58:45 10° WNW 11:01:48 33° N 11:04:50 10° ENE daylight
22 Dec - 12:35:45 10° WNW 12:38:48 33° N 12:41:51 10° ENE daylight
22 Dec - 14:12:14 10° WNW 14:15:32 81° SSW 14:18:48 10° ESE daylight
22 Dec - 15:49:52 10° WSW 15:51:33 13° SW 15:53:13 10° SSW daylight
23 Dec - 08:29:39 10° SW 08:32:48 46° SE 08:36:00 10° ENE daylight
23 Dec - 10:06:11 10° W 10:09:21 41° NNW 10:12:30 10° ENE daylight
23 Dec - 11:43:21 10° WNW 11:46:20 30° N 11:49:18 10° ENE daylight
23 Dec - 13:19:55 10° WNW 13:23:12 65° NNE 13:26:28 10° ESE daylight
23 Dec - 14:56:47 10° W 14:59:26 23° SW 15:02:06 10° SSE daylight
24 Dec - 07:37:47 10° SSW 07:40:37 27° SE 07:43:27 10° E daylight
24 Dec - 09:13:41 10° WSW 09:16:56 57° NNW 09:20:11 10° ENE daylight
24 Dec - 10:50:52 10° WNW 10:53:50 30° N 10:56:47 10° ENE daylight
24 Dec - 12:27:36 10° WNW 12:30:47 45° NNE 12:33:58 10° E daylight
24 Dec - 14:04:09 10° WNW 14:07:15 39° SW 14:10:20 10° SE daylight
25 Dec - 06:46:23 10° S 06:48:28 16° SE 06:50:33 10° E visible
25 Dec - 08:21:16 10° WSW 08:24:33 87° NNW 08:27:51 10° ENE daylight
25 Dec - 09:58:18 10° WNW 10:01:19 32° N 10:04:20 10° ENE daylight
25 Dec - 11:35:15 10° WNW 11:38:20 35° NNE 11:41:24 10° E daylight
25 Dec - 13:11:42 10° WNW 13:14:59 68° SSW 13:18:15 10° SE daylight
25 Dec - 14:50:01 10° WSW 14:50:55 11° SW 14:51:49 10° SSW daylight
26 Dec - 07:29:00 10° SW 07:32:13 56° SSE 07:35:28 10° ENE daylight
26 Dec - 09:05:42 10° W 09:08:49 38° NNW 09:11:56 10° ENE daylight
26 Dec - 10:42:49 10° WNW 10:45:49 31° N 10:48:48 10° ENE daylight
26 Dec - 12:19:20 10° WNW 12:22:38 75° NNE 12:25:55 10° ESE daylight
26 Dec - 13:56:23 10° W 13:58:47 19° SW 14:01:12 10° S daylight
